カタログに戻る

STARLINK-31127

運用中通信VLEO
NORAD 58765·PAYLOAD·🇺🇸 United States

打ち上げ Jan 14, 2024 から Vandenberg Space Force Base

Loading…

次のパス (今後24時間)

TLE

最新Source: CelesTrak SupGP

元期: Sep 15, 2026, 02:43 UTC

1 58765C 24011A   26258.11368056 -.00062467  00000+0 -18455-2 0  2581
2 58765  53.1580 213.0769 0001387  95.2104 223.2225 15.34422621    12

AllMySatでSTARLINK-31127をリアルタイム追跡

Download on the App Store